Regional Weather Roundup
Issued by NWS

Home | Current Version | Previous Version | Text Only | Print | Product List | Glossary Off
Versions: 1 2 3 4 5 6 7 8 9 10 11 12 13 14 15 16 17 18 19 20 21 22 23 24 25 26 27 28 29 30 31 32 33 34 35 36 37 38 39 40 41 42 43 44 45 46 47 48 49 50

000
ASUS43 KLSX 260659
RWRMO

WEATHER SUMMARY FOR MISSOURI
NATIONAL WEATHER SERVICE SPRINGFIELD MO
200 AM CDT SUN APR 26 2015

NOTE: "FAIR" INDICATES FEW OR NO CLOUDS BELOW 12,000 FEET WITH NO
       SIGNIFICANT WEATHER AND/OR OBSTRUCTIONS TO VISIBILITY.
       CURRENT SKY AND/OR WEATHER CONDITIONS ARE NOT AVAILABLE FOR
       CHILLICOTHE AND FARMINGTON.

MOZ001>031-035>038-043-044-053-054-260800-
...NORTHERN AND WESTERN MISSOURI...

CITY           SKY/WX    TMP DP  RH WIND       PRES   REMARKS
KANSAS CTY INT DRIZZLE   48  47  96 NE10      29.84S
KANSAS C DTWN  CLOUDY    50  47  89 NE10      29.84R
LEE`S SUMMIT   CLOUDY    49  46  90 NE10      29.84S
ST JOSEPH      CLOUDY    49  45  86 NE10      29.87R FOG
CHILLICOTHE      N/A     49  44  83 NE7       29.88R
KIRKSVILLE     CLOUDY    47  43  86 NE8       29.88R

$$
MOZ066>068-077>081-088>096-101>105-260800-
...SOUTHWEST MISSOURI...

CITY           SKY/WX    TMP DP  RH WIND       PRES   REMARKS
SPRINGFIELD    CLOUDY    54  51  90 N12       29.76R
JOPLIN         CLOUDY    55  51  86 N8        29.77R

$$
MOZ032>034-039>042-045>050-055>058-069>072-260800-
...CENTRAL MISSOURI...

CITY           SKY/WX    TMP DP  RH WIND       PRES   REMARKS
COLUMBIA       CLOUDY    48  46  93 NE14      29.82S FOG
JEFFERSON CITY CLOUDY    50  46  86 VRB7      29.82R
ROLLA          CLOUDY    49  48  97 N10       29.77R FOG
SEDALIA        CLOUDY    49  46  90 NE9       29.84R
OSAGE BEACH    CLOUDY    50  46  87 N6        29.80R

$$
MOZ051-052-059>065-260800-
...EAST CENTRAL MISSOURI...

CITY           SKY/WX    TMP DP  RH WIND       PRES   REMARKS
ST LOUIS INTL  CLOUDY    49  43  80 NE10      29.81R
SPIRIT OF STL  CLOUDY    48  44  86 N10       29.80R
ST CHARLES     CLOUDY    48  44  86 NE12      29.82R

$$
MOZ072>076-082>087-097>100-106>115-260800-
...SOUTH CENTRAL AND SOUTHEAST MISSOURI...

CITY           SKY/WX    TMP DP  RH WIND       PRES   REMARKS
CAPE GIRARDEAU CLOUDY    56  53  90 N14       29.70R
FARMINGTON     CLOUDY    48  46  93 N12       29.78R
POPLAR BLUFF   CLOUDY    63  56  78 N8        29.67R
WEST PLAINS    CLOUDY    58  52  80 N7        29.73S

$$



USA.gov is the U.S. government's official web portal to all federal, state and local government web resources and services.